Weather Roundup
Issued by NWS Springfield, MO

Home | Current Version | Previous Version | Text Only | Print | Product List | Glossary On
Versions: 1 2 3 4 5 6 7 8 9 10 11 12 13 14 15 16 17 18 19 20 21 22 23 24 25 26 27 28 29 30 31 32 33 34 35 36 37 38 39 40 41 42 43 44 45 46 47 48 49 50
000
NZUS99 KSGF 060107
HRRSGF

HOURLY WEATHER
NATIONAL WEATHER SERVICE SPRINGFIELD MO
800 PM CDT SUN JUL 05 2015

......SGF CWA......

CITY           SKY/WX    TMP DP  RH WIND       PRES   REMARKS
SPRINGFIELD    MOCLDY    74  68  81 S9        29.98F
JOPLIN         PTCLDY    77  66  68 SE6       29.95S
WEST PLAINS    CLOUDY    80  71  74 S7        30.05R
ROLLA          PTCLDY    79  72  79 SE3       30.00R
OSAGE BEACH    MOCLDY    82  72  69 SW12      29.99S
BRANSON        MOCLDY    72  68  88 E5        30.03R

......SURROUNDING SGF CWA......

CITY           SKY/WX    TMP DP  RH WIND       PRES   REMARKS
CHANUTE        CLEAR     88  73  61 S12G21    29.90R HX  95
PARSONS        PTCLDY    89  75  63 S10       29.92R HX  99
COFFEYVILLE    CLEAR     88  74  63 S13       29.90R HX  96
EMPORIA        CLEAR     88  71  57 S13       29.86R HX  94
GROVE OK       PTCLDY    88  73  62 S7        29.96R HX  96
ROGERS AR      CLOUDY    78  68  71 S6        30.01S
SILOAM SPRINGS CLOUDY    73  66  78 W8        30.02S THUNDER
HARRISON AR    CLOUDY    71  69  93 SE6       30.04R
NEAR YELLVILLE   N/A     77  72  83 NE5       29.99S

......KANSAS AND MISSOURI......

CITY           SKY/WX    TMP DP  RH WIND       PRES   REMARKS
KANSAS CTY INT PTCLDY    85  75  72 S15       29.89S HX  93
DOWNTOWN KC    CLEAR     88  74  63 S10G20    29.88S HX  96
COLUMBIA       CLEAR     81  71  71 S8        29.98R
SEDALIA        CLEAR     83  74  74 SE12      29.96S
ST JOSEPH      MOCLDY    87  75  67 S14       29.86S HX  96
ST LOUIS       MOCLDY    84  66  54 S9        30.00S
SPIRIT OF STL  PTCLDY    81  70  69 SE3       29.98S HAZE
KIRKSVILLE     PTCLDY    79  68  69 SE9       29.95F
WICHITA        PTCLDY    93  65  39 S21       29.83R HX  95
TOPEKA         CLEAR     88  74  63 SE8       29.85S HX  96
OLATHE         CLEAR     84  74  71 S13       29.90R HX  91

......TENNESSEE......

CITY           SKY/WX    TMP DP  RH WIND       PRES   REMARKS
MEMPHIS        PTCLDY    79  71  76 SW10      30.06R
NASHVILLE      MOCLDY    80  71  74 VRB3      30.05R

......ARKANSAS.......

CITY           SKY/WX    TMP DP  RH WIND       PRES   REMARKS
FAYETTEVILLE   CLOUDY    74  68  81 SW8       30.00F
FT SMITH       LGT RAIN  72  69  90 CALM      29.99R FOG
LITTLE ROCK    MOCLDY    77  69  76 S8        30.05R

......OKLAHOMA.......

CITY           SKY/WX    TMP DP  RH WIND       PRES   REMARKS
TULSA          PTCLDY    90  71  53 S18G26    29.91R HX  96
PONCA CITY     CLEAR     91  70  49 S10G18    29.87R HX  96
MCALESTER      CLEAR     86  73  65 S5        29.95R HX  93
OKLAHOMA CITY  MOCLDY    86  71  60 S14       29.91R HX  91

......IOWA............

CITY           SKY/WX    TMP DP  RH WIND       PRES   REMARKS
DES MOINES     PTCLDY    83  68  60 S13       29.88F
QUAD CITIES    MOCLDY    78  66  66 SE6       29.97F

......ILLINOIS........

CITY           SKY/WX    TMP DP  RH WIND       PRES   REMARKS
QUINCY         PTCLDY    79  69  71 SE6       29.98S HAZE
CHICAGO        CLEAR     78  60  53 S9        30.01F




USA.gov is the U.S. government's official web portal to all federal, state and local government web resources and services.